sat.trackr.live / text

‹ back to catalog

STARLINK-5339

NORAD 56510 · 2023-065H

PAYLOAD ACTIVE UNKNOWN

§ Identity

Operator
Country
US
Launch date
2023-05-14
Launch site
AFETR
Launch vehicle
Mass (kg)
RCS (m²)

Purposes: comms

External: N2YO · Heavens-Above · Gunter

§ Orbital elements

Epoch: 2026-05-24T11:20:09.758688Z

Period
94.27 min
Inclination
43.0035°
Eccentricity
0.0001478
Mean motion
15.27574786 rev/d
Perigee alt
482.1 km
Apogee alt
484.1 km
Semi-major
6,861.2 km
B*
4.8674e-5
RAAN
144.1671°
Arg perigee
264.4354°
Mean anomaly
95.6329°
Rev number
16,819

§ Raw data

STARLINK-53391 56510U 23065H   26144.47233517  .00001077  00000+0  48674-4 0  99992 56510  43.0035 144.1671 0001478 264.4354  95.6329 15.27574786168197

JSON: /api/v1/satellites/56510 · /tle

For live sub-satellite position, see the globe view (requires WebGL).

§ Visibility from observer

Set your observer location to see the next 7 days of passes ≥ 10°. The values pass through the URL so the page stays shareable.

No JS? Fill the form by hand. The geolocation button needs JavaScript.